Time,TemperatureF,DewpointF,PressureIn,WindDirection,WindDirectionDegrees,WindSpeedMPH,WindSpeedGustMPH,Humidity,HourlyPrecipIn,Conditions,Clouds,dailyrainin,SoftwareType,DateUTC
2013-02-25 00:01:00,46.0,28.0,30.03,NNE,15,0.0,1.0,50,0.00,,,0.02,,2013-02-25 05:01:00,
2013-02-25 00:11:00,46.0,28.0,30.03,NNE,15,0.0,1.0,50,0.00,,,0.02,,2013-02-25 05:11:00,
2013-02-25 00:22:00,46.0,28.0,30.03,NNE,30,2.0,4.0,50,0.00,,,0.02,,2013-02-25 05:22:00,
2013-02-25 00:32:00,45.0,28.0,30.03,NNE,20,2.0,4.0,51,0.00,,,0.02,,2013-02-25 05:32:00,
2013-02-25 00:42:00,45.0,28.0,30.03,NNE,20,2.0,4.0,51,0.00,,,0.02,,2013-02-25 05:42:00,
2013-02-25 00:52:00,45.0,27.0,30.03,NNE,30,3.0,5.0,50,0.00,,,0.02,,2013-02-25 05:52:00,
2013-02-25 01:02:00,45.0,28.0,30.04,NNE,15,1.0,3.0,51,0.00,,,0.02,,2013-02-25 06:02:00,
2013-02-25 01:11:00,45.0,28.0,30.04,NNE,15,1.0,3.0,51,0.00,,,0.02,,2013-02-25 06:11:00,
2013-02-25 01:21:00,45.0,28.0,30.04,NNE,13,2.0,5.0,51,0.00,,,0.02,,2013-02-25 06:21:00,
2013-02-25 01:32:00,44.0,27.0,30.04,North,8,3.0,6.0,51,0.00,,,0.02,,2013-02-25 06:32:00,
2013-02-25 01:42:00,44.0,27.0,30.04,North,8,3.0,6.0,51,0.00,,,0.02,,2013-02-25 06:42:00,
2013-02-25 01:52:00,45.0,28.0,30.04,NNE,18,4.0,8.0,51,0.00,,,0.02,,2013-02-25 06:52:00,
2013-02-25 02:01:00,44.0,28.0,30.04,NNW,334,5.0,8.0,52,0.00,,,0.02,,2013-02-25 07:01:00,
2013-02-25 02:11:00,44.0,28.0,30.04,NE,53,4.0,9.0,53,0.00,,,0.02,,2013-02-25 07:11:00,
2013-02-25 02:21:00,44.0,28.0,30.04,NE,53,4.0,9.0,53,0.00,,,0.02,,2013-02-25 07:21:00,
2013-02-25 02:32:00,43.0,29.0,30.05,ENE,57,6.0,11.0,58,0.00,,,0.02,,2013-02-25 07:32:00,
2013-02-25 02:42:00,43.0,29.0,30.05,ENE,57,6.0,11.0,58,0.00,,,0.02,,2013-02-25 07:42:00,
2013-02-25 02:52:00,42.0,30.0,30.06,NE,47,6.0,12.0,63,0.00,,,0.02,,2013-02-25 07:52:00,
2013-02-25 03:01:00,41.0,31.0,30.07,ENE,70,5.0,9.0,66,0.00,,,0.02,,2013-02-25 08:01:00,
2013-02-25 03:11:00,41.0,31.0,30.07,ENE,70,5.0,9.0,66,0.00,,,0.02,,2013-02-25 08:11:00,
2013-02-25 03:21:00,40.0,31.0,30.06,ENE,72,4.0,8.0,69,0.00,,,0.02,,2013-02-25 08:21:00,
2013-02-25 03:32:00,39.0,30.0,30.05,ESE,102,7.0,13.0,69,0.00,,,0.02,,2013-02-25 08:32:00,
2013-02-25 03:42:00,39.0,30.0,30.05,ESE,102,7.0,13.0,69,0.00,,,0.02,,2013-02-25 08:42:00,
2013-02-25 03:52:00,39.0,30.0,30.06,ENE,75,6.0,13.0,69,0.00,,,0.02,,2013-02-25 08:52:00,
2013-02-25 04:01:00,38.0,29.0,30.07,East,82,6.0,12.0,69,0.00,,,0.02,,2013-02-25 09:01:00,
2013-02-25 04:12:00,38.0,29.0,30.07,East,82,6.0,12.0,69,0.00,,,0.02,,2013-02-25 09:12:00,
2013-02-25 04:21:00,38.0,29.0,30.08,East,101,3.0,11.0,69,0.00,,,0.02,,2013-02-25 09:21:00,
2013-02-25 04:32:00,37.0,27.0,30.09,ENE,77,4.0,8.0,68,0.00,,,0.02,,2013-02-25 09:32:00,
2013-02-25 04:42:00,37.0,27.0,30.09,ENE,77,4.0,8.0,68,0.00,,,0.02,,2013-02-25 09:42:00,
2013-02-25 04:52:00,37.0,28.0,30.09,East,84,3.0,6.0,69,0.00,,,0.02,,2013-02-25 09:52:00,
2013-02-25 05:01:00,37.0,28.0,30.10,ENE,68,3.0,8.0,70,0.00,,,0.02,,2013-02-25 10:01:00,
2013-02-25 05:11:00,37.0,28.0,30.10,ENE,68,3.0,8.0,70,0.00,,,0.02,,2013-02-25 10:11:00,
2013-02-25 05:21:00,36.0,27.0,30.10,NE,50,5.0,11.0,70,0.00,,,0.00,,2013-02-25 10:21:00,
2013-02-25 05:32:00,36.0,27.0,30.11,East,101,3.0,8.0,69,0.00,,,0.00,,2013-02-25 10:32:00,
2013-02-25 05:42:00,36.0,27.0,30.11,East,101,3.0,8.0,69,0.00,,,0.00,,2013-02-25 10:42:00,
2013-02-25 05:52:00,36.0,27.0,30.11,East,81,5.0,10.0,69,0.00,,,0.00,,2013-02-25 10:52:00,
2013-02-25 06:01:00,35.0,26.0,30.12,NE,51,4.0,8.0,69,0.00,,,0.00,,2013-02-25 11:01:00,
2013-02-25 06:11:00,35.0,26.0,30.12,NE,51,4.0,8.0,69,0.00,,,0.00,,2013-02-25 11:11:00,
2013-02-25 06:22:00,35.0,26.0,30.13,NE,49,3.0,8.0,70,0.00,,,0.00,,2013-02-25 11:22:00,
2013-02-25 06:32:00,35.0,26.0,30.13,East,96,4.0,9.0,68,0.00,,,0.00,,2013-02-25 11:32:00,
2013-02-25 06:42:00,35.0,26.0,30.13,East,96,4.0,9.0,68,0.00,,,0.00,,2013-02-25 11:42:00,
2013-02-25 06:52:00,35.0,26.0,30.14,NE,56,2.0,5.0,68,0.00,,,0.00,,2013-02-25 11:52:00,
2013-02-25 07:02:00,35.0,25.0,30.14,East,89,4.0,8.0,67,0.00,,,0.00,,2013-02-25 12:02:00,
2013-02-25 07:11:00,35.0,25.0,30.14,East,89,4.0,8.0,67,0.00,,,0.00,,2013-02-25 12:11:00,
2013-02-25 07:22:00,34.0,24.0,30.14,NE,44,2.0,9.0,67,0.00,,,0.00,,2013-02-25 12:22:00,
2013-02-25 07:32:00,34.0,24.0,30.15,ESE,109,4.0,8.0,66,0.00,,,0.00,,2013-02-25 12:32:00,
2013-02-25 07:42:00,34.0,24.0,30.15,ESE,109,4.0,8.0,66,0.00,,,0.00,,2013-02-25 12:42:00,
2013-02-25 07:56:00,34.0,23.0,30.15,East,92,4.0,7.0,65,0.00,,,0.00,,2013-02-25 12:56:00,
2013-02-25 08:02:00,34.0,23.0,30.16,ENE,60,4.0,9.0,65,0.00,,,0.00,,2013-02-25 13:02:00,
2013-02-25 08:12:00,34.0,23.0,30.16,ENE,60,4.0,9.0,65,0.00,,,0.00,,2013-02-25 13:12:00,
2013-02-25 08:23:00,35.0,24.0,30.18,ENE,72,3.0,7.0,65,0.00,,,0.00,,2013-02-25 13:23:00,
2013-02-25 08:32:00,35.0,24.0,30.19,NE,49,3.0,10.0,64,0.00,,,0.00,,2013-02-25 13:32:00,
2013-02-25 08:42:00,35.0,24.0,30.19,NE,49,3.0,10.0,64,0.00,,,0.00,,2013-02-25 13:42:00,
2013-02-25 08:52:00,35.0,24.0,30.18,ENE,59,3.0,8.0,63,0.00,,,0.00,,2013-02-25 13:52:00,
2013-02-25 09:03:00,35.0,23.0,30.19,ENE,60,3.0,10.0,62,0.00,,,0.00,,2013-02-25 14:03:00,
2013-02-25 09:17:00,35.0,23.0,30.19,ENE,60,3.0,10.0,62,0.00,,,0.00,,2013-02-25 14:17:00,
2013-02-25 09:32:00,36.0,22.0,30.19,East,84,6.0,12.0,57,0.00,,,0.00,,2013-02-25 14:32:00,
2013-02-25 09:42:00,36.0,22.0,30.19,East,84,6.0,12.0,57,0.00,,,0.00,,2013-02-25 14:42:00,
2013-02-25 09:52:00,37.0,23.0,30.20,ESE,120,6.0,10.0,56,0.00,,,0.00,,2013-02-25 14:52:00,
2013-02-25 10:03:00,37.0,23.0,30.21,East,97,4.0,10.0,56,0.00,,,0.00,,2013-02-25 15:03:00,
2013-02-25 10:11:00,37.0,23.0,30.21,East,97,4.0,10.0,56,0.00,,,0.00,,2013-02-25 15:11:00,
2013-02-25 10:22:00,38.0,24.0,30.22,NE,53,2.0,6.0,56,0.00,,,0.00,,2013-02-25 15:22:00,
2013-02-25 10:32:00,38.0,23.0,30.21,NNE,19,5.0,9.0,55,0.00,,,0.00,,2013-02-25 15:32:00,
2013-02-25 10:42:00,38.0,23.0,30.21,NNE,19,5.0,9.0,55,0.00,,,0.00,,2013-02-25 15:42:00,
2013-02-25 10:52:00,39.0,24.0,30.20,NE,54,5.0,8.0,55,0.00,,,0.00,,2013-02-25 15:52:00,
2013-02-25 11:02:00,39.0,24.0,30.19,North,9,5.0,7.0,54,0.00,,,0.00,,2013-02-25 16:02:00,
2013-02-25 11:12:00,39.0,24.0,30.19,North,9,5.0,7.0,54,0.00,,,0.00,,2013-02-25 16:12:00,
2013-02-25 11:22:00,40.0,25.0,30.19,NE,53,5.0,8.0,54,0.00,,,0.00,,2013-02-25 16:22:00,
2013-02-25 11:32:00,40.0,25.0,30.18,SE,143,3.0,7.0,54,0.00,,,0.00,,2013-02-25 16:32:00,
2013-02-25 11:42:00,40.0,25.0,30.18,SE,143,3.0,7.0,54,0.00,,,0.00,,2013-02-25 16:42:00,
2013-02-25 11:52:00,40.0,24.0,30.19,NE,37,2.0,9.0,53,0.00,,,0.00,,2013-02-25 16:52:00,
2013-02-25 12:01:00,41.0,24.0,30.19,NNW,328,5.0,8.0,51,0.00,,,0.00,,2013-02-25 17:01:00,
2013-02-25 12:11:00,41.0,24.0,30.19,NNW,328,5.0,8.0,51,0.00,,,0.00,,2013-02-25 17:11:00,
2013-02-25 12:21:00,41.0,24.0,30.19,East,89,2.0,6.0,51,0.00,,,0.00,,2013-02-25 17:21:00,
2013-02-25 12:32:00,41.0,24.0,30.17,NE,39,4.0,7.0,51,0.00,,,0.00,,2013-02-25 17:32:00,
2013-02-25 12:42:00,41.0,24.0,30.17,NE,39,4.0,7.0,51,0.00,,,0.00,,2013-02-25 17:42:00,
2013-02-25 12:52:00,42.0,25.0,30.17,ENE,59,2.0,6.0,51,0.00,,,0.00,,2013-02-25 17:52:00,
2013-02-25 13:02:00,42.0,25.0,30.16,NNE,33,4.0,8.0,51,0.00,,,0.00,,2013-02-25 18:02:00,
2013-02-25 13:12:00,42.0,25.0,30.16,NNE,33,4.0,8.0,51,0.00,,,0.00,,2013-02-25 18:12:00,
2013-02-25 13:21:00,42.0,25.0,30.16,East,86,4.0,6.0,50,0.00,,,0.00,,2013-02-25 18:21:00,
2013-02-25 13:33:00,42.0,24.0,30.16,East,84,4.0,11.0,49,0.00,,,0.00,,2013-02-25 18:33:00,
2013-02-25 13:42:00,42.0,24.0,30.16,East,84,4.0,11.0,49,0.00,,,0.00,,2013-02-25 18:42:00,
2013-02-25 13:52:00,42.0,25.0,30.16,ESE,102,3.0,6.0,50,0.00,,,0.00,,2013-02-25 18:52:00,
2013-02-25 14:01:00,42.0,25.0,30.17,ENE,70,2.0,6.0,51,0.00,,,0.00,,2013-02-25 19:01:00,
2013-02-25 14:11:00,42.0,25.0,30.17,ENE,70,2.0,6.0,51,0.00,,,0.00,,2013-02-25 19:11:00,
2013-02-25 14:22:00,42.0,25.0,30.16,NE,43,3.0,6.0,51,0.00,,,0.00,,2013-02-25 19:22:00,
2013-02-25 14:32:00,42.0,25.0,30.14,NE,37,4.0,6.0,50,0.00,,,0.00,,2013-02-25 19:32:00,
2013-02-25 14:42:00,42.0,25.0,30.14,NE,37,4.0,6.0,50,0.00,,,0.00,,2013-02-25 19:42:00,
2013-02-25 14:52:00,42.0,25.0,30.14,NE,44,2.0,8.0,51,0.00,,,0.00,,2013-02-25 19:52:00,
2013-02-25 15:01:00,42.0,25.0,30.14,NE,53,4.0,8.0,51,0.00,,,0.00,,2013-02-25 20:01:00,
2013-02-25 15:11:00,42.0,25.0,30.14,NE,53,4.0,8.0,51,0.00,,,0.00,,2013-02-25 20:11:00,
2013-02-25 15:21:00,42.0,26.0,30.14,ENE,77,3.0,6.0,52,0.00,,,0.00,,2013-02-25 20:21:00,
2013-02-25 15:32:00,42.0,25.0,30.14,ENE,59,3.0,6.0,51,0.00,,,0.00,,2013-02-25 20:32:00,
2013-02-25 15:42:00,42.0,25.0,30.14,ENE,59,3.0,6.0,51,0.00,,,0.00,,2013-02-25 20:42:00,
2013-02-25 15:52:00,42.0,26.0,30.13,East,82,3.0,6.0,52,0.00,,,0.00,,2013-02-25 20:52:00,
2013-02-25 16:01:00,42.0,26.0,30.13,East,82,3.0,6.0,52,0.00,,,0.00,,2013-02-25 21:01:00,
2013-02-25 16:11:00,42.0,26.0,30.13,East,82,3.0,6.0,52,0.00,,,0.00,,2013-02-25 21:11:00,
2013-02-25 16:21:00,42.0,26.0,30.12,ENE,75,3.0,5.0,53,0.00,,,0.00,,2013-02-25 21:21:00,
2013-02-25 16:32:00,41.0,26.0,30.12,ENE,67,3.0,5.0,54,0.00,,,0.00,,2013-02-25 21:32:00,
2013-02-25 16:42:00,41.0,26.0,30.12,ENE,67,3.0,5.0,54,0.00,,,0.00,,2013-02-25 21:42:00,
2013-02-25 16:52:00,41.0,26.0,30.13,NE,43,3.0,6.0,54,0.00,,,0.00,,2013-02-25 21:52:00,
2013-02-25 17:01:00,41.0,26.0,30.13,NNE,12,3.0,8.0,55,0.00,,,0.00,,2013-02-25 22:01:00,
2013-02-25 17:11:00,41.0,26.0,30.13,NNE,12,3.0,8.0,55,0.00,,,0.00,,2013-02-25 22:11:00,
2013-02-25 17:21:00,41.0,27.0,30.12,East,89,1.0,4.0,56,0.00,,,0.00,,2013-02-25 22:21:00,
2013-02-25 17:32:00,41.0,27.0,30.12,ENE,65,2.0,6.0,56,0.00,,,0.00,,2013-02-25 22:32:00,
2013-02-25 17:42:00,41.0,27.0,30.12,ENE,65,2.0,6.0,56,0.00,,,0.00,,2013-02-25 22:42:00,
2013-02-25 17:52:00,41.0,27.0,30.13,East,93,2.0,5.0,57,0.00,,,0.00,,2013-02-25 22:52:00,
2013-02-25 18:01:00,40.0,26.0,30.14,ENE,68,2.0,5.0,58,0.00,,,0.00,,2013-02-25 23:01:00,
2013-02-25 18:11:00,40.0,26.0,30.14,ENE,68,2.0,5.0,58,0.00,,,0.00,,2013-02-25 23:11:00,
2013-02-25 18:22:00,40.0,27.0,30.14,ENE,72,1.0,3.0,59,0.00,,,0.00,,2013-02-25 23:22:00,
2013-02-25 18:32:00,40.0,27.0,30.13,East,82,2.0,6.0,59,0.00,,,0.00,,2013-02-25 23:32:00,
2013-02-25 18:42:00,40.0,27.0,30.13,East,82,2.0,6.0,59,0.00,,,0.00,,2013-02-25 23:42:00,
2013-02-25 18:52:00,40.0,27.0,30.14,NNE,33,2.0,7.0,59,0.00,,,0.00,,2013-02-25 23:52:00,
2013-02-25 19:01:00,39.0,26.0,30.14,ENE,78,1.0,4.0,60,0.00,,,0.00,,2013-02-26 00:01:00,
2013-02-25 19:12:00,39.0,26.0,30.14,ENE,78,1.0,4.0,60,0.00,,,0.00,,2013-02-26 00:12:00,
2013-02-25 19:22:00,39.0,26.0,30.14,ENE,78,1.0,4.0,60,0.00,,,0.00,,2013-02-26 00:22:00,
2013-02-25 19:32:00,39.0,26.0,30.14,ENE,78,1.0,4.0,60,0.00,,,0.00,,2013-02-26 00:32:00,
2013-02-25 19:42:00,39.0,26.0,30.14,ENE,78,1.0,4.0,60,0.00,,,0.00,,2013-02-26 00:42:00,
2013-02-25 19:52:00,38.0,26.0,30.14,ESE,107,3.0,4.0,61,0.00,,,0.00,,2013-02-26 00:52:00,
2013-02-25 20:02:00,38.0,26.0,30.15,ENE,66,2.0,5.0,61,0.00,,,0.00,,2013-02-26 01:02:00,
2013-02-25 20:11:00,38.0,26.0,30.15,ENE,66,2.0,5.0,61,0.00,,,0.00,,2013-02-26 01:11:00,
2013-02-25 20:21:00,38.0,26.0,30.15,East,79,2.0,3.0,62,0.00,,,0.00,,2013-02-26 01:21:00,
2013-02-25 20:32:00,38.0,26.0,30.14,ENE,71,2.0,4.0,62,0.00,,,0.00,,2013-02-26 01:32:00,
2013-02-25 20:42:00,38.0,26.0,30.14,ENE,71,2.0,4.0,62,0.00,,,0.00,,2013-02-26 01:42:00,
2013-02-25 20:52:00,38.0,27.0,30.15,East,96,1.0,4.0,64,0.00,,,0.00,,2013-02-26 01:52:00,
2013-02-25 21:01:00,37.0,26.0,30.15,ENE,75,2.0,3.0,64,0.00,,,0.00,,2013-02-26 02:01:00,
2013-02-25 21:11:00,37.0,26.0,30.15,ENE,75,2.0,3.0,64,0.00,,,0.00,,2013-02-26 02:11:00,
2013-02-25 21:21:00,37.0,26.0,30.14,NE,52,2.0,4.0,65,0.00,,,0.00,,2013-02-26 02:21:00,
2013-02-25 21:32:00,37.0,26.0,30.14,East,85,3.0,4.0,65,0.00,,,0.00,,2013-02-26 02:32:00,
2013-02-25 21:42:00,37.0,26.0,30.14,East,85,3.0,4.0,65,0.00,,,0.00,,2013-02-26 02:42:00,
2013-02-25 21:52:00,37.0,27.0,30.14,East,82,3.0,4.0,66,0.00,,,0.00,,2013-02-26 02:52:00,
2013-02-25 22:02:00,37.0,27.0,30.14,ENE,57,2.0,4.0,66,0.00,,,0.00,,2013-02-26 03:02:00,
2013-02-25 22:11:00,37.0,27.0,30.14,ENE,57,2.0,4.0,66,0.00,,,0.00,,2013-02-26 03:11:00,
2013-02-25 22:22:00,37.0,27.0,30.13,ENE,77,2.0,6.0,67,0.00,,,0.00,,2013-02-26 03:22:00,
2013-02-25 22:32:00,37.0,27.0,30.13,East,94,4.0,6.0,67,0.00,,,0.00,,2013-02-26 03:32:00,
2013-02-25 22:42:00,37.0,27.0,30.13,East,94,4.0,6.0,67,0.00,,,0.00,,2013-02-26 03:42:00,
2013-02-25 22:52:00,37.0,27.0,30.13,ESE,112,4.0,5.0,67,0.00,,,0.00,,2013-02-26 03:52:00,
2013-02-25 23:01:00,37.0,27.0,30.12,ENE,65,4.0,7.0,67,0.00,,,0.00,,2013-02-26 04:01:00,
2013-02-25 23:11:00,37.0,27.0,30.12,ENE,65,4.0,7.0,67,0.00,,,0.00,,2013-02-26 04:11:00,
2013-02-25 23:22:00,37.0,27.0,30.11,East,93,3.0,7.0,68,0.00,,,0.00,,2013-02-26 04:22:00,
2013-02-25 23:32:00,37.0,27.0,30.11,East,93,3.0,7.0,68,0.00,,,0.00,,2013-02-26 04:32:00,
2013-02-25 23:42:00,37.0,27.0,30.11,East,93,3.0,7.0,68,0.00,,,0.00,,2013-02-26 04:42:00,
2013-02-25 23:52:00,37.0,27.0,30.12,East,82,3.0,6.0,68,0.00,,,0.00,,2013-02-26 04:52:00,